CAPE
2756 2935 2616 2979 3092 2969 2929 3297 2631 3390 3297 3418 2424 2694 2474 2839 3867 3146 3385 3588 4049 3859 4098 3868 3628 3833 3942 4268 4610 3814 4334 4261 3767 4039 3926 4402 3674 3450 3107 2355 2069 2305
2304 2526 2679 2430 3041 3636 3147 2712 2603 3041 3074 2982 3404 3289 2806 2871 2708 3327 3040 3529 4133 3626 3936 3839 4223 3615 3541 3435 3766 3263 4151 4330 3251 3955 3935 4029 2833 2930 2496 2570 2564 2803
2576 2620 2844 2442 2329 2751 3312 2664 2543 2578 2794 2553 2717 2616 3182 3420 3085 3034 2648 3483 3582 3710 3645 3827 3638 3435 3448 4276 3340 4068 4231 3688 3346 3209 3841 3910 3821 3142 3594 3205 2628 2014
3005 2548 2942 2694 2388 2545 2363 2198 2470 2354 2756 2403 1707 2720 2525 2667 2852 3143 2644 4717 3448 3636 3594 3867 3597 3391 3518 3865 3928 4102 3936 3991 3476 3997 3072 3765 4082 3553 3319 3188 3003 1664
2942 2575 2660 2519 2152 2328 2203 2255 2286 1571 2360 2434 1858 1880 2382 2875 2634 2808 3008 3463 3135 3566 3366 3614 3518 3097 3139 3929 3857 3465 3476 4054 4157 3887 3451 3583 3027 3245 3115 3088 3238 2287
2698 2509 2032 2013 1970 2042 2047 2020 2059 1959 1557 2264 1791 1868 2232 2294 1980 2590 2537 3118 2881 3094 3229 3364 3566 3126 3540 3609 4015 3054 3188 4056 3718 3460 3352 3264 3450 3242 3119 2974 2557 2802
2197 2249 1987 1920 1795 1899 1654 1723 1725 1987 1558 1725 1899 2049 1927 1665 1885 2138 2152 2632 2481 2705 3078 3052 3358 2996 3410 3428 3338 3265 3410 3511 3395 3146 3352 3587 3864 3386 3146 2971 2649 3262
1680 1955 1819 1825 1741 1695 1538 1381 1470 1370 1481 1250 1674 1948 1602 1846 2357 1724 1995 2469 2387 2394 2352 2516 2802 2946 3160 3568 3375 3333 3706 3865 3544 3022 3532 3523 3470 3554 3487 3525 3472 2919
1778 1852 1617 1564 1470 1604 1352 1396 1396 1352 1335 1401 1503 1462 1534 1858 2134 1964 1654 1931 2055 2105 2180 2298 2742 3006 3344 3062 3073 3403 3426 3401 2814 3310 3461 3498 3379 3130 3313 3340 3020 3112
1546 1694 1547 1418 1368 1145 1070 1109 1210 1070 1160 844 928 869 1390 1505 1596 1613 1146 1884 1668 2237 2424 2328 2194 2315 3395 2964 2570 3248 3516 3395 3491 2871 2579 3072 3013 2640 2630 2374 2438 2484
1590 1422 1536 1283 1212 1109 892 818 684 664 1058 877 878 872 735 1098 1457 1413 1733 2594 1965 2608 2544 2643 2898 2984 3419 3242 3089 3225 3252 3318 3401 3218 2939 2787 2914 2833 3860 3206 2826 2556
1456 1460 1279 1240 1138 1011 1228 490 409 322 593 833 825 765 686 655 1202 1161 1026 2679 2129 2099 2310 2939 3219 3325 3378 3040 2745 2704 2932 3258 3045 3121 3120 3054 2998 2947 2802 2760 2911 2838
1034 1021 941 1275 1195 1101 1185 532 393 495 566 220 444 564 532 484 1135 970 865 2098 2222 2670 2696 2801 3000 2772 2656 3020 2908 2614 2636 2511 2735 2592 2416 2876 2811 2618 2597 2330 2162 2014
838 776 771 681 1004 1371 1190 797 1309 1560 1665 1509 1352 1421 253 224 227 790 830 1645 2711 2508 2482 2508 2743 3021 2718 2993 3174 2717 2582 2812 2621 2511 2693 2538 2302 2161 2332 1998 1500 1297
2017 1906 1878 1509 2439 1648 1651 1428 1378 1615 1400 2179 2848 2696 2326 2151 1775 628 714 1202 2460 2579 2589 2491 2326 2114 1707 1824 2144 2912 2728 2410 2629 2298 2342 2406 2357 2557 2009 1299 1330 1120
2192 1890 1775 1842 2500 2851 2170 2062 2073 2126 3048 3150 2946 2968 3066 2963 2353 1910 1498 845 705 1595 2116 2268 2169 2055 1579 1668 2308 2576 2690 2608 2336 1956 2127 2154 2436 2803 2164 1224 1286 1348
1551 1338 1374 1766 1955 2944 3435 3603 3397 3223 3053 2890 2775 3060 2814 2456 1989 2132 1407 1117 850 632 890 1219 1454 1650 1160 891 878 1365 2854 2673 2559 2673 2136 2598 1960 2038 2119 1544 1560 1626
1945 1531 1147 1345 1465 2099 2527 2891 3277 3196 2980 2682 2315 2284 2246 1896 1622 1802 1711 1441 1022 756 542 357 513 660 484 597 824 1072 1615 3111 2576 3058 2849 2231 2554 1933 1416 1093 901 823
1928 1890 1886 1872 1625 1584 2003 2320 2645 2813 2718 2416 1956 1638 2298 1843 1884 1981 1984 1737 1315 1056 816 554 418 543 607 675 805 1076 1338 2120 2238 2146 1390 1458 1319 1234 1172 1083 988 916
1416 1554 1676 1770 1760 1767 1775 1988 1939 1796 1952 1974 1942 1814 1644 1909 1828 2456 2030 1819 1716 1473 1163 884 797 861 878 858 857 863 979 1434 2038 1925 1862 1547 1398 1210 1180 1207 1130 1410
1223 1262 1317 1241 1177 1024 1054 1498 1537 1656 1555 1398 1293 1322 1407 1729 1707 2008 1793 1625 1552 1532 1345 1164 918 901 978 1010 1008 1020 995 1675 2164 2399 1882 1586 1364 1272 1180 1152 1212 1671
916 952 996 1024 1048 996 875 1010 1108 1146 1218 1187 1093 1094 1102 1203 1931 2175 1585 879 872 1030 988 1228 1206 1063 827 791 964 1106 1232 2092 2597 2087 1627 1357 1230 1325 1439 1549 1474 1383
820 816 838 924 1007 1027 1025 1024 887 890 908 888 815 804 880 1121 1296 1681 1609 1418 852 537 424 584 870 1051 1002 772 851 972 1172 1948 2368 2132 1682 1535 1351 1283 1378 1294 1540 1789
702 704 698 807 880 903 886 828 841 863 836 724 689 646 755 790 796 944 1148 1236 998 750 555 609 743 841 944 834 997 1178 1237 1420 2166 1922 1893 1612 1454 1369 1258 1158 1109 1246
574 625 644 661 661 674 657 662 705 743 729 704 686 607 598 664 701 681 772 837 747 878 855 770 788 845 865 802 818 914 940 1016 1898 1482 1531 1568 1429 1317 1162 1143 1152 1156
357 424 494 517 540 563 566 598 610 606 596 527 516 508 538 542 534 466 332 316 229 523 812 751 794 864 791 770 776 681 705 858 898 1025 1010 969 1046 1249 1311 1148 1050 962
Wind_Speed
6 6 6 5 4 2 3 4 4 3 3 4 2 1 1 2 4 1 0 1 1 1 0 0 1 1 1 1 2 2 1 2 2 0 2 3 3 2 4 3 1 5
8 6 6 6 4 4 3 5 5 4 4 5 4 3 1 1 2 1 1 1 1 1 1 1 1 1 1 1 2 2 2 2 1 1 1 2 3 2 2 2 3 1
9 8 8 7 5 3 4 6 7 5 5 4 6 5 2 2 2 1 2 2 1 1 1 1 1 1 1 2 3 2 3 3 1 1 2 1 0 1 1 2 3 0
9 9 8 7 6 5 5 7 8 8 8 7 5 5 3 3 3 2 2 1 2 2 1 2 1 2 2 2 3 2 2 3 3 3 3 1 0 1 1 1 1 1
10 10 9 8 7 8 7 7 8 8 9 8 7 6 5 6 5 4 3 2 3 4 3 2 3 4 4 3 4 4 3 3 1 3 3 2 1 2 0 2 1 2
12 12 11 10 10 10 9 8 9 8 9 11 9 6 7 6 6 5 5 4 3 4 3 3 4 4 5 4 5 5 5 4 3 4 4 3 2 1 1 4 3 2
13 13 12 12 12 13 12 11 10 9 8 9 10 8 8 8 7 6 6 5 5 5 5 4 4 5 5 5 5 5 5 5 5 5 4 3 3 1 1 2 3 3
14 14 13 15 15 15 15 15 13 11 8 9 8 9 9 9 8 7 7 6 6 8 7 6 6 6 5 6 5 6 5 6 8 7 6 4 4 3 3 3 5 4
16 15 15 14 15 17 15 17 16 14 11 11 11 8 8 8 8 7 8 8 9 10 10 9 9 8 7 7 7 7 6 5 7 8 6 5 5 5 6 5 4 5
16 16 15 15 14 16 17 18 17 16 15 14 15 13 10 9 9 8 11 10 10 11 11 11 10 10 9 8 7 8 8 7 7 7 7 6 6 6 6 7 6 6
16 16 16 15 15 16 16 17 17 19 19 18 17 15 14 14 12 11 11 12 10 13 13 11 11 11 11 10 10 10 9 9 8 8 8 7 6 6 6 8 7 7
16 16 16 16 15 16 16 17 18 18 19 19 18 16 15 16 15 13 14 14 12 12 14 13 13 13 12 11 11 11 11 11 10 10 9 8 7 7 6 7 8 7
16 16 17 17 16 15 16 17 19 22 23 22 19 17 16 17 17 16 15 15 14 14 14 14 12 12 13 13 12 13 12 12 12 11 12 11 11 10 9 8 9 8
16 17 17 17 17 17 18 18 20 22 24 23 25 22 18 17 18 16 15 15 15 15 14 14 13 13 14 14 15 14 16 15 13 14 14 14 14 13 9 12 18 17
21 21 21 19 19 18 20 21 20 20 20 23 25 25 26 24 21 19 16 13 14 15 15 14 17 22 20 17 14 14 17 17 17 16 16 15 16 15 18 24 16 11
30 29 29 25 22 22 22 22 21 21 23 24 23 24 24 22 22 21 21 19 18 17 17 20 20 21 22 21 20 16 15 17 19 19 19 19 18 16 21 21 16 16
23 22 22 20 19 21 24 24 24 23 23 23 23 23 22 22 23 23 22 20 20 22 24 22 21 21 23 26 26 23 19 19 22 22 22 22 20 20 21 22 20 17
26 24 23 22 23 21 22 21 23 24 24 23 23 23 23 24 25 24 24 23 24 25 25 25 24 23 26 27 27 26 25 22 21 23 23 23 23 25 22 23 21 20
26 25 27 27 24 25 23 23 25 26 25 24 24 23 24 25 26 26 27 27 27 27 27 28 27 25 28 29 28 26 28 29 28 27 27 29 29 27 26 25 24 23
30 29 29 30 31 31 29 27 27 27 28 28 28 26 24 24 26 27 27 27 27 28 29 29 29 26 28 31 30 29 27 27 29 29 31 30 27 27 28 27 27 26
35 35 36 35 35 35 34 33 31 31 31 31 30 29 29 28 25 27 29 31 31 32 33 31 30 29 29 30 32 31 29 26 28 31 32 31 30 28 28 28 28 28
37 39 40 41 42 42 40 39 37 35 34 34 34 33 31 29 27 28 30 31 34 36 37 35 32 32 33 31 29 31 31 30 33 34 33 32 31 30 28 27 28 28
31 34 37 41 44 46 44 41 39 37 37 37 37 37 35 33 31 32 34 35 37 38 40 38 36 34 33 32 30 29 31 31 33 35 34 33 34 32 31 30 28 28
26 28 30 34 40 44 44 42 39 38 39 39 40 39 38 37 36 35 37 41 40 40 39 40 37 35 36 35 34 32 31 31 33 35 35 36 36 34 33 32 32 36
26 25 24 24 28 34 39 42 42 42 42 42 43 43 43 40 39 38 39 38 37 39 40 39 37 35 36 35 35 34 33 34 37 38 37 37 38 36 34 34 33 34
24 25 24 22 21 23 27 31 35 38 40 42 42 41 41 41 44 44 40 36 37 39 38 37 36 35 34 35 35 37 39 39 38 40 38 37 38 39 36 34 33 31
Wind_Direction
272 261 270 257 261 261 283 294 311 303 297 290 318 34 3 96 130 220 43 334 347 1 31 339 148 222 340 268 320 285 220 223 176 112 125 119 110 96 103 105 29 341
286 280 272 270 263 249 253 295 292 291 284 284 286 278 294 254 123 207 266 289 278 355 12 356 348 353 1 356 334 337 262 262 205 201 49 102 108 125 132 116 95 1
278 275 283 287 291 275 281 286 278 276 278 277 268 271 266 245 234 185 285 289 289 320 341 309 315 358 353 310 336 304 336 324 343 202 210 251 102 149 138 163 114 59
274 280 282 286 281 285 274 269 268 271 262 261 266 276 261 250 262 284 282 295 272 276 335 313 320 330 321 323 319 330 325 336 348 305 280 244 212 150 164 200 93 158
275 279 276 277 275 273 276 269 272 270 267 269 257 255 254 250 265 275 290 278 280 278 296 318 313 316 317 306 317 326 306 315 323 320 328 331 308 272 312 242 237 27
269 268 269 271 275 275 276 269 259 268 260 273 273 261 256 259 260 250 260 275 282 284 284 281 272 292 296 292 294 306 301 322 348 332 331 337 335 331 330 305 293 259
269 272 276 272 273 272 274 270 264 256 262 270 272 276 269 265 257 258 254 241 257 266 278 267 273 272 279 284 290 297 300 302 304 309 310 321 327 12 326 291 304 276
263 265 271 267 275 274 270 272 270 267 262 259 279 281 279 272 267 265 254 253 239 241 255 264 259 259 265 273 280 289 295 303 307 315 318 329 323 326 333 318 319 336
262 261 259 261 263 273 279 275 276 274 272 272 287 281 275 279 274 267 260 263 253 246 255 248 250 253 258 269 279 284 292 284 285 304 312 319 324 321 315 310 317 332
262 260 264 258 260 258 269 271 273 277 275 275 273 275 282 276 280 270 254 261 256 254 254 250 250 252 255 265 269 273 280 286 279 285 294 306 309 310 319 319 324 334
263 261 262 258 260 260 266 268 265 270 271 271 267 265 263 270 266 269 262 259 260 256 259 252 252 251 254 253 252 262 268 270 270 275 285 291 293 293 302 303 307 307
272 265 262 260 256 253 254 262 266 269 270 273 271 271 267 270 274 272 267 263 261 258 255 258 258 260 257 253 251 255 261 263 264 266 276 280 282 288 291 293 298 300
270 267 264 262 263 259 258 258 254 251 250 250 256 273 273 265 274 270 265 267 271 269 264 261 264 261 259 259 259 259 264 258 258 257 254 257 262 266 263 276 278 266
265 264 264 263 260 264 265 262 252 251 251 250 250 244 252 264 265 274 271 269 272 274 274 266 267 266 257 254 260 262 260 263 258 257 256 255 250 248 253 255 247 248
251 251 253 258 256 260 261 262 259 253 251 250 247 249 247 242 236 246 258 268 276 282 280 277 263 257 254 245 233 249 263 262 263 257 255 255 250 246 243 244 252 270
231 232 230 230 240 249 251 255 257 255 250 249 248 251 251 248 249 245 248 248 250 254 255 249 246 247 243 243 243 246 259 264 264 261 256 254 253 249 255 273 274 261
260 264 261 255 245 235 236 240 248 248 249 248 247 248 252 252 251 251 251 257 259 264 268 262 255 248 237 243 241 239 246 260 264 264 263 257 255 250 257 258 253 253
240 241 249 246 251 258 258 255 250 250 247 246 246 244 247 251 254 255 259 261 265 270 272 273 269 259 253 246 245 247 248 250 254 262 263 263 258 259 256 257 261 258
260 257 254 251 249 255 259 258 257 254 251 248 247 248 251 254 259 261 263 266 269 274 274 271 268 262 265 261 256 251 251 256 253 251 255 256 259 258 256 255 253 250
254 257 256 254 252 250 249 250 251 252 251 248 248 248 251 258 261 264 265 267 273 276 274 271 267 259 261 265 260 255 252 258 261 256 256 259 258 256 255 254 251 251
248 248 248 248 250 250 250 250 250 250 250 251 251 250 249 250 257 266 266 265 264 269 269 266 264 262 264 263 262 256 253 258 262 259 258 256 255 253 252 252 255 257
254 252 249 246 247 248 250 248 248 248 249 247 248 248 249 251 252 258 264 266 268 268 265 262 259 255 260 261 258 257 255 259 260 260 260 259 256 253 250 248 252 254
258 259 254 248 244 246 246 247 248 249 250 249 248 246 249 253 255 254 255 257 259 258 261 259 256 249 248 253 255 254 262 263 264 261 262 260 256 252 248 243 244 251
256 262 261 253 247 245 244 245 247 248 250 251 250 249 250 251 253 255 257 256 258 257 257 257 253 248 246 246 249 253 264 266 266 266 262 260 257 252 251 245 242 251
250 255 258 259 253 247 244 243 245 248 251 252 250 251 251 252 254 257 259 264 266 265 265 258 251 247 246 247 247 252 261 262 264 265 264 260 258 253 251 248 243 244
252 253 253 251 252 249 241 238 240 244 248 249 248 248 249 251 252 251 253 255 256 260 256 252 249 246 245 244 246 247 256 261 260 263 265 262 254 248 245 247 246 246